[[{"header":{"parameterUnit":"m.s-1","parameterCategory":1,"la1":30.2991,"la2":30.254,"lo1":-89.0895,"lo2":-89.0444,"dy":0.0017,"dx":0.0017,"nx":28,"ny":28,"refTime":"2024-03-26T03:00:00:Z","depth":0,"parameterNumber":2,"parameterNumberName":"U-component_of_WINDS"},"data":[0,0,0,0,0,0,0,0,0,0,0,0,0,0,0,0,0,0,0,0,0,0,0,0,0,0,0,0,0,0,0,0,0,0,0,0,0,0,0,0,0,0,0,0,0,0,0,0,0,0,0,0,0,0,0,0,0,0,2.6995,2.6996,0,2.7105,2.7106,2.7108,2.7123,2.7122,2.7121,2.712,2.7231,2.7235,2.7239,0,0,0,0,0,0,0,0,0,0,0,0,0,2.6798,2.6802,2.6995,2.6996,2.6998,2.7105,2.7106,2.7108,2.7123,2.7122,2.7121,2.712,2.723,2.7235,2.7239,0,0,0,0,0,0,0,0,0,0,0,0,0,2.6893,2.6803,2.6995,2.7018,2.7022,2.7105,2.7107,2.7108,2.7124,2.7122,2.7121,2.7119,2.7228,2.7234,2.724,2.7306,0,0,2.7258,2.726,0,0,0,0,0,0,0,0,2.6888,2.6901,2.7014,2.7017,2.7021,2.7099,2.7078,2.7175,2.7124,2.7085,2.712,2.7118,2.7188,2.7197,2.7221,2.7312,2.7316,2.7258,2.7262,2.7264,2.7266,0,0,0,0,0,0,0,2.6881,2.6896,2.7039,2.7015,2.702,2.7024,2.7035,2.7096,2.7144,2.7088,2.709,2.7102,2.719,2.7216,2.7224,2.7318,2.7258,2.7263,2.7267,2.7269,2.747,2.7472,0,0,0,0,0,0,2.687,2.689,2.7035,2.7042,2.6949,2.7028,2.7042,2.7075,2.7143,2.7152,2.7104,2.7103,2.7206,2.7217,2.7228,2.7311,2.7264,2.727,2.7273,2.7468,2.747,2.7472,0,0,0,0,0,0,2.6866,2.6883,2.7031,2.6967,2.6986,2.7033,2.7071,2.7078,2.7104,2.7155,2.7163,2.7121,2.7206,2.722,2.7287,2.7315,2.7272,2.7278,2.7466,2.7469,2.7471,2.7477,0,0,0,0,0,0,2.686,2.6882,2.6907,2.6967,2.6989,2.7088,2.7073,2.7082,2.7114,2.7114,2.7174,2.7182,2.7206,2.7278,2.7293,2.7323,2.7282,2.7464,2.7467,2.7471,2.7475,2.748,2.7484,0,0,0,0,0,2.6853,2.6904,2.6908,2.6926,2.7022,2.709,2.7102,2.7129,2.7116,2.7143,2.7176,2.718,2.731,2.7285,2.7302,2.7333,2.7462,2.7466,2.747,2.7473,2.7479,2.7484,0,0,0,0,0,0,2.6845,2.6912,2.6918,2.6989,2.7034,2.7092,2.7126,2.7134,2.7183,2.7181,2.7211,2.7225,2.7291,2.7319,2.729,2.7402,2.7385,2.7393,2.7381,2.7388,2.7392,2.7384,2.7287,0,0,0,0,0,2.6852,2.6901,2.6957,2.7015,2.7037,2.7078,2.7108,2.7125,2.7172,2.7191,2.7229,2.7274,2.7325,2.7358,2.7408,2.748,2.7493,2.751,2.7514,2.7518,2.7524,2.7565,2.7573,2.7486,2.7486,2.7486,0,0,2.6866,2.6908,2.6938,2.7014,2.7051,2.7101,2.7093,2.7147,2.7185,2.7199,2.7265,2.7295,2.7347,2.7417,2.745,2.7443,2.7551,2.7523,2.7526,2.753,2.757,2.7578,2.7586,2.7489,2.7488,2.7488,0,0,2.6917,2.6954,2.7007,2.7044,2.71,2.7127,2.714,2.7197,2.7218,2.7285,2.7297,2.7343,2.743,2.7467,2.7498,2.7565,2.7571,2.7581,2.7605,2.7645,2.7652,2.7658,2.7682,2.7691,2.7587,2.7587,2.7587,0,2.6927,2.7004,2.7033,2.7086,2.712,2.7136,2.719,2.7225,2.7293,2.7316,2.7307,2.7419,2.7455,2.7535,2.7551,2.7575,2.7591,2.7574,2.7649,2.7655,2.7661,2.7685,2.7694,2.7588,2.7587,2.7587,2.7587,0,2.7014,2.7067,2.7103,2.717,2.7208,2.7261,2.7298,2.7333,2.7347,2.7376,2.7445,2.7489,2.7549,2.7569,2.7583,2.7652,2.7646,2.7642,2.7625,2.767,2.7693,2.7702,2.7589,2.7588,2.7588,2.7588,0,0,2.7061,2.7145,2.7158,2.7189,2.7253,2.7295,2.7349,2.7409,2.7438,2.7486,2.7532,2.7607,2.7605,2.7639,2.7658,2.7693,2.7745,2.7686,2.7687,2.7695,2.7823,2.7825,2.7835,2.7749,2.7751,2.7753,2.7819,0,2.712,2.7218,2.7246,2.7329,2.7379,2.7396,2.7444,2.7488,2.7517,2.7563,2.7594,2.7647,2.764,2.7661,2.7697,2.7731,2.7771,2.7726,2.7793,2.7795,2.7779,2.7847,2.7849,2.7909,2.7828,2.783,2.7831,0,2.7201,2.7251,2.7339,2.7398,2.742,2.7462,2.7519,2.7564,2.7615,2.7633,2.7673,2.7689,2.7747,2.7728,2.7808,2.7778,2.7807,2.7828,2.7831,2.7838,2.7815,2.7855,2.7929,2.7938,2.7845,2.7844,2.7843,0,2.7227,2.7317,2.7381,2.7407,2.7477,2.7507,2.7537,2.7587,2.7621,2.7672,2.7694,2.775,2.7781,2.7824,2.7855,2.7838,2.7934,2.7917,2.795,2.795,2.7969,2.7967,2.8048,2.7988,2.7988,2.7988,2.7988,0,2.7289,2.7342,2.7394,2.7433,2.7494,2.7526,2.7585,2.7616,2.7661,2.7707,2.7725,2.7768,2.7807,2.7855,2.788,2.7943,2.7957,2.7973,2.7979,2.7971,2.7969,2.799,2.7987,2.799,2.799,2.7989,2.7989,0,2.7328,2.7365,2.7436,2.7497,2.7514,2.7556,2.7608,2.7647,2.7677,2.7735,2.7751,2.7797,2.7855,2.7891,2.7964,2.798,2.805,2.8055,2.8033,2.8036,2.8068,2.8064,2.8164,2.8179,2.811,2.811,2.8111,0,2.7365,2.7406,2.7472,2.7505,2.7536,2.7588,2.7624,2.7658,2.7694,2.7757,2.7789,2.7848,2.7897,2.7989,2.8029,2.8086,2.8091,2.8123,2.81,2.8091,2.8092,2.8089,2.8093,2.8126,2.8127,2.8127,2.8127,0,2.7427,2.7443,2.7494,2.7552,2.7594,2.7641,2.7688,2.7713,2.7756,2.7796,2.7856,2.7894,2.797,2.8028,2.8089,2.812,2.8131,2.8135,2.8146,2.8138,2.8124,2.8132,2.8043,2.8132,2.8131,2.8131,2.8131,2.8131,2.7466,2.7504,2.7557,2.7613,2.7652,2.7696,2.7736,2.7772,2.7822,2.7887,2.7904,2.7967,2.8019,2.8101,2.8134,2.8184,2.8179,2.8195,2.8199,2.8202,2.8203,2.8116,2.8195,2.8195,2.8195,2.8195,2.8195,0,2.7528,2.7564,2.7615,2.7681,2.7726,2.7733,2.7786,2.7823,2.7878,2.7925,2.7974,2.8043,2.8101,2.8147,2.8206,2.8237,2.8244,2.8252,2.8249,2.8257,2.8203,2.8188,2.8246,2.8246,2.8245,2.8245,2.8245,2.8245,2.7566,2.7631,2.7654,2.774,2.7775,2.7837,2.7866,2.7907,2.7945,2.8022,2.8071,2.81,2.8148,2.8211,2.8264,2.8276,2.8297,2.8304,2.8317,2.8266,2.826,2.8255,2.8241,2.8308,2.8309,2.8366,2.8367,2.8367]},{"header":{"parameterUnit":"m.s-1","parameterCategory":1,"la1":30.2991,"la2":30.254,"lo1":-89.0895,"lo2":-89.0444,"dy":0.0017,"dx":0.0017,"nx":28,"ny":28,"refTime":"2024-03-26T03:00:00:Z","depth":0,"parameterNumber":3,"parameterNumberName":"V-component_of_WINDS"},"data":[0,0,0,0,0,0,0,0,0,0,0,0,0,0,0,0,0,0,0,0,0,0,0,0,0,0,0,0,0,0,0,0,0,0,0,0,0,0,0,0,0,0,0,0,0,0,0,0,0,0,0,0,0,0,0,0,0,0,-5.8186,-5.8187,0,-5.8265,-5.8266,-5.8267,-5.8194,-5.8191,-5.8188,-5.8186,-5.8263,-5.8267,-5.8272,0,0,0,0,0,0,0,0,0,0,0,0,0,-5.7969,-5.7973,-5.8186,-5.8187,-5.8188,-5.8265,-5.8266,-5.8267,-5.8195,-5.8191,-5.8188,-5.8184,-5.8261,-5.8267,-5.8272,0,0,0,0,0,0,0,0,0,0,0,0,0,-5.8057,-5.7975,-5.8186,-5.8161,-5.816,-5.8265,-5.8266,-5.8268,-5.8195,-5.8191,-5.8187,-5.8183,-5.8259,-5.8266,-5.8273,-5.8405,0,0,-5.8295,-5.8298,0,0,0,0,0,0,0,0,-5.8052,-5.8065,-5.8164,-5.8163,-5.8162,-5.8215,-5.8218,-5.8314,-5.8197,-5.8182,-5.8186,-5.818,-5.825,-5.8258,-5.8282,-5.8409,-5.8412,-5.8296,-5.83,-5.8303,-5.8305,0,0,0,0,0,0,0,-5.8046,-5.8061,-5.8217,-5.8165,-5.8164,-5.8145,-5.8153,-5.8235,-5.824,-5.8183,-5.8178,-5.8188,-5.8249,-5.8275,-5.8283,-5.8413,-5.8296,-5.8302,-5.8306,-5.8309,-5.8652,-5.8657,0,0,0,0,0,0,-5.8043,-5.8057,-5.8215,-5.822,-5.8095,-5.8153,-5.8161,-5.8203,-5.8239,-5.824,-5.8192,-5.8185,-5.8265,-5.8275,-5.8286,-5.8443,-5.8303,-5.831,-5.8314,-5.8648,-5.8653,-5.8659,0,0,0,0,0,0,-5.8039,-5.8058,-5.8212,-5.8137,-5.8155,-5.8161,-5.8208,-5.8207,-5.8233,-5.8246,-5.8245,-5.8219,-5.8262,-5.8276,-5.8376,-5.8445,-5.8313,-5.832,-5.8642,-5.8649,-5.8656,-5.8759,0,0,0,0,0,0,-5.8033,-5.8057,-5.8108,-5.8139,-5.8159,-5.8303,-5.8212,-5.8211,-5.8246,-5.8237,-5.8271,-5.8272,-5.826,-5.8366,-5.8384,-5.8452,-5.8325,-5.8636,-5.8645,-5.8654,-5.875,-5.8769,-5.8786,0,0,0,0,0,-5.8025,-5.8133,-5.8111,-5.813,-5.8224,-5.8307,-5.8318,-5.8303,-5.8252,-5.8303,-5.8311,-5.8271,-5.8435,-5.8377,-5.8396,-5.8468,-5.8631,-5.8643,-5.8653,-5.8742,-5.8765,-5.8785,0,0,0,0,0,0,-5.8109,-5.8136,-5.8112,-5.8233,-5.8269,-5.8294,-5.8358,-5.8329,-5.8378,-5.8367,-5.8345,-5.8354,-5.846,-5.8474,-5.8409,-5.8598,-5.8524,-5.854,-5.8585,-5.8608,-5.8626,-5.862,-5.8331,0,0,0,0,0,-5.8141,-5.8208,-5.8228,-5.8333,-5.8351,-5.8352,-5.8388,-5.8373,-5.8408,-5.8422,-5.8437,-5.8471,-5.853,-5.857,-5.8624,-5.8751,-5.8757,-5.881,-5.8828,-5.8842,-5.8856,-5.8924,-5.8948,-5.8694,-5.8694,-5.8694,0,0,-5.8209,-5.8233,-5.8275,-5.835,-5.8375,-5.8444,-5.8365,-5.844,-5.849,-5.8433,-5.853,-5.8542,-5.8578,-5.8693,-5.8744,-5.8707,-5.8927,-5.8856,-5.8868,-5.8874,-5.8938,-5.8962,-5.8983,-5.8702,-5.87,-5.8699,0,0,-5.8368,-5.8392,-5.8483,-5.851,-5.855,-5.855,-5.8572,-5.8602,-5.8609,-5.8706,-5.8664,-5.8722,-5.8825,-5.8853,-5.888,-5.905,-5.9015,-5.9068,-5.9162,-5.9229,-5.9249,-5.9267,-5.9328,-5.935,-5.9081,-5.9082,-5.9082,0,-5.8447,-5.8549,-5.8532,-5.8612,-5.8645,-5.8598,-5.8689,-5.8715,-5.8771,-5.8795,-5.8753,-5.8881,-5.8902,-5.9023,-5.9065,-5.9088,-5.9112,-5.9065,-5.9248,-5.9265,-5.9281,-5.9339,-5.9362,-5.9088,-5.9087,-5.9087,-5.9086,0,-5.8645,-5.8716,-5.8784,-5.8841,-5.8882,-5.8967,-5.8961,-5.9005,-5.8987,-5.8991,-5.909,-5.9114,-5.9173,-5.92,-5.9183,-5.9318,-5.9295,-5.9251,-5.9177,-5.9312,-5.9366,-5.9388,-5.9097,-5.9095,-5.9093,-5.9091,0,0,-5.8858,-5.8905,-5.8931,-5.8956,-5.8997,-5.9051,-5.9133,-5.9192,-5.923,-5.927,-5.9337,-5.9425,-5.9385,-5.9417,-5.9402,-5.946,-5.9594,-5.9409,-5.941,-5.9443,-5.9745,-5.9778,-5.9804,-5.9571,-5.9575,-5.9578,-5.9742,0,-5.9019,-5.9164,-5.9151,-5.9287,-5.9353,-5.9309,-5.938,-5.9412,-5.9418,-5.9473,-5.9478,-5.9541,-5.9484,-5.9502,-5.9558,-5.9566,-5.9654,-5.9554,-5.9633,-5.9636,-5.9626,-5.9833,-5.9868,-6.0022,-5.9763,-5.9767,-5.9769,0,-5.9226,-5.9275,-5.9419,-5.945,-5.9477,-5.9541,-5.9595,-5.9649,-5.9684,-5.9684,-5.972,-5.9695,-5.9776,-5.97,-5.9811,-5.9743,-5.9775,-5.9783,-5.9789,-5.9796,-5.9711,-5.9846,-6.0071,-6.0094,-5.9802,-5.98,-5.9797,0,-5.9369,-5.947,-5.9569,-5.9592,-5.9631,-5.9677,-5.9695,-5.9726,-5.9763,-5.9809,-5.9832,-5.9887,-5.9917,-5.9959,-5.9949,-5.9894,-6.0063,-5.9986,-6.0065,-6.0065,-6.0103,-6.0101,-6.0336,-6.0122,-6.0122,-6.0121,-6.0121,0,-5.955,-5.964,-5.9634,-5.9695,-5.9794,-5.9777,-5.9875,-5.9887,-5.9915,-5.9977,-5.9941,-5.9999,-5.9982,-6.004,-6.0032,-6.0126,-6.0139,-6.0141,-6.0138,-6.0145,-6.0145,-6.0165,-6.0155,-6.0128,-6.0126,-6.0125,-6.0124,0,-5.9726,-5.9726,-5.9831,-5.986,-5.9869,-5.994,-5.9964,-6.0021,-6.0024,-6.0102,-6.012,-6.0124,-6.0189,-6.0184,-6.0257,-6.0252,-6.0368,-6.0352,-6.0357,-6.0354,-6.0433,-6.0426,-6.0691,-6.0725,-6.0488,-6.049,-6.0492,0,-5.9842,-5.991,-5.9947,-5.9986,-6.0008,-6.0072,-6.011,-6.0096,-6.0136,-6.0182,-6.0233,-6.0296,-6.0345,-6.0452,-6.0461,-6.0517,-6.0502,-6.0591,-6.051,-6.0515,-6.0504,-6.05,-6.0507,-6.0607,-6.061,-6.0612,-6.0614,0,-6.0049,-6.0045,-6.0102,-6.0159,-6.0205,-6.0249,-6.0289,-6.0323,-6.0313,-6.036,-6.0427,-6.0466,-6.0542,-6.0604,-6.0657,-6.0674,-6.0643,-6.0639,-6.066,-6.0668,-6.0669,-6.067,-6.0401,-6.0633,-6.0631,-6.063,-6.0629,-6.0628,-6.0199,-6.0258,-6.0293,-6.0357,-6.0386,-6.0424,-6.0479,-6.0489,-6.0546,-6.0608,-6.0595,-6.0671,-6.0704,-6.0773,-6.0795,-6.0853,-6.0821,-6.0852,-6.0859,-6.0868,-6.0877,-6.0659,-6.0863,-6.0862,-6.0861,-6.0861,-6.0861,0,-6.0404,-6.0425,-6.0484,-6.0541,-6.0592,-6.0559,-6.0601,-6.0645,-6.0713,-6.0747,-6.0797,-6.0875,-6.0935,-6.0949,-6.1007,-6.1051,-6.1038,-6.1066,-6.1063,-6.1068,-6.0902,-6.0879,-6.1076,-6.1076,-6.1076,-6.1076,-6.1076,-6.1076,-6.0517,-6.0615,-6.0616,-6.0727,-6.0746,-6.0822,-6.0849,-6.0884,-6.0911,-6.1,-6.1051,-6.106,-6.1085,-6.1145,-6.1199,-6.1201,-6.1224,-6.1259,-6.1256,-6.1101,-6.1079,-6.1059,-6.1036,-6.1264,-6.1264,-6.1416,-6.1417,-6.1419]}]]